Location: Gwatt
(46.7204°N, 7.6223°E)
Time: 19:03:34
(UTC+00:00)

Transit 2A - Pass Details

Date: 25 January 2021
Orbit: 600 x 958 km, 66.7° (Epoch: 26 February)

Event Time Altitude Azimuth Distance (km) Brightness Sun altitude
Rises 05:18:52 0° 265° (W) 3,407 - -17.5°
Reaches altitude 10° 05:22:15 10° 284° (WNW) 2,401 - -16.9°
Exits shadow 05:25:37 18° 322° (NW) 1,850 7.6 -16.4°
Maximum altitude 05:25:54 18° 325° (NW) 1,841 7.6 -16.3°
Drops below altitude 10° 05:29:21 10° 8° (N) 2,243 8.4 -15.7°
Sets 05:32:23 0° 28° (NNE) 3,096 9.4 -15.2°
